Showing default

RAWHIDE-1, 68629

Orbit data source: Space-Track

RAWHIDE-1, 68629 is a payload satellite owned by SMDC (US) in LEO that was launched on Tue, 07 Apr 2026 UTC via an MINOTAUR IV launch vehicle from the Air Force Western Test Range (AFWTR). Payload-class satellites include a variety of spacecraft equipped with specific instruments for various scientific and technological missions. These include communications satellites like Starlink; space stations such as the ISS; scientific satellites like the Hubble; Earth observation satellites from companies like Planet Labs, Umbra, and HawkEye 360; GPS; miniature CubeSats for education and research; and military/defense satellites.

Loading next visibility...
Identifier
68629, 2026-074C
Orbit
LEO
Country
Flag of USUS
Related business
Manufacturer
SMDC?
Mission
Operational spacecraft
Bus & Motor
CUBESAT 6U?, Unknown motor
Mass
10 kg wet, 10 kg dry
Launch date (UTC)
2026-04-07 (2 months ago)
Launch vehicle
MINOTAUR IV
Launch site
Air Force Western Test Range (AFWTR)
Object type
Payload
Rocket body
Debris
Shape & HBR
Unknown shape, 14.5 m
Radar Cross Section
RCS unknown

Expand to show TLE details & history
Last TLE update: 2 days ago

TLE from 2 days ago
0 RAWHIDE-1
1 68629U 26074C   26143.51189896  .00007215  00000-0  30102-3 0  9997
2 68629  60.0211 272.8740 0024956   2.2974 357.8216 15.24382555  7024
Epoch: 2026-05-23T12:17Z
TLE epoch observation values (Epoch: 2026-05-23T12:17:08.070Z)
Latitude
-0.00005°
Longitude
-152.53699°
Altitude
477.106 km
Speed
7.637 km/s
True Right ascension
18h 11m 29s
True Declination
0° 00' 00"
Sunlit
Object was in full shadow at epoch
Visualization orbit readout
Latitude
Unknown
Longitude
Unknown
Altitude
Unknown
Speed
Unknown
Apparent Right ascension
Unknown
Apparent Declination
Unknown
Sunlit
N/A
Visualization observer readout
Local Sidereal Time
09:39:44
Azimuth
Unknown
Elevation
Unknown
Doppler factor
Unknown
Orbital elements
Apogee altitude
508.985 km
Perigee altitude
474.695 km
Semi-major axis
6,869.977 km
Eccentricity
0.0025
Inclination
60.0211°
RAAN
272.874°
Arg. of periapsis
2.2974°
True anomaly
357.8107°
Mean anomaly
357.8216°
Eccentric anomaly
357.81615°
Mean motion
3.81163 °/min
Orbital period
94.45 mins
BSTAR
0.00030102
Loading maneuver chart data...
Computing Atmospheric mass density...
Loading historical data...
Loading historical data...
Loading historical data...
Loading historical data...
Loading historical data...
Loading historical data...
Loading historical data...

Documentation

Showing up to 5 results
|